Regional Weather Roundup
Issued by NWS

Home | Current Version | Previous Version | Text Only | Print | Product List | Glossary On
Versions: 1 2 3 4 5 6 7 8 9 10 11 12 13 14 15 16 17 18 19 20 21 22 23 24 25 26 27 28 29 30 31 32 33 34 35 36 37 38 39 40 41 42 43 44 45 46 47 48 49 50
000
ASUS43 KLSX 152057
RWRMO

WEATHER SUMMARY FOR MISSOURI
NATIONAL WEATHER SERVICE SPRINGFIELD MO
300 PM CST MON JAN 15 2018

NOTE: "FAIR" INDICATES FEW OR NO CLOUDS BELOW 12,000 FEET WITH NO
       SIGNIFICANT WEATHER AND/OR OBSTRUCTIONS TO VISIBILITY.
       CURRENT SKY AND/OR WEATHER CONDITIONS ARE NOT AVAILABLE FOR
       CHILLICOTHE AND FARMINGTON.

MOZ001>031-035>038-043-044-053-054-152200-
...NORTHERN AND WESTERN MISSOURI...

CITY           SKY/WX    TMP DP  RH WIND       PRES   REMARKS
KANSAS CTY INT PTSUNNY   10  -2  58 NW18G25   30.53R WCI  -8
LEE`S SUMMIT   PTSUNNY   12   0  58 NW17      30.53R WCI  -5
ST JOSEPH        N/A    N/A N/A N/A MISG      30.57R
CHILLICOTHE      N/A     11  -3  53 NW15G23   30.51R WCI  -5

$$
MOZ066>068-077>081-088>096-101>105-152200-
...SOUTHWEST MISSOURI...

CITY           SKY/WX    TMP DP  RH WIND       PRES   REMARKS
SPRINGFIELD    CLOUDY    17   8  67 NW13      30.44R WCI   4
JOPLIN         CLOUDY    15   5  64 N15       30.53R WCI   0

$$
MOZ032>034-039>042-045>050-055>058-069>072-152200-
...CENTRAL MISSOURI...

CITY           SKY/WX    TMP DP  RH WIND       PRES   REMARKS
COLUMBIA       NOT AVBL
JEFFERSON CITY PTSUNNY   14   3  61 W18       30.48R WCI  -3
ROLLA          PTSUNNY   14   4  64 W17       30.40R WCI  -3
SEDALIA        MOSUNNY   13   2  61 NW16G25   30.49R WCI  -3
WARRENSBURG    CLOUDY    14   0  52 NW15      30.51S WCI  -1

$$
MOZ051-052-059>065-152200-
...EAST CENTRAL MISSOURI...

CITY           SKY/WX    TMP DP  RH WIND       PRES   REMARKS
ST LOUIS INTL  CLOUDY    16   5  62 NW15G25   30.40R WCI   1

$$
MOZ072>076-082>087-097>100-106>115-152200-
...SOUTH CENTRAL AND SOUTHEAST MISSOURI...

CITY           SKY/WX    TMP DP  RH WIND       PRES   REMARKS
CAPE GIRARDEAU LGT SNOW  28  23  81 N9        30.37R WCI  19
POPLAR BLUFF   SNOW      30  28  92 W7        30.37R VSB 1/2 WCI  23
WEST PLAINS    CLOUDY    24  14  65 NW17G23   30.38R WCI  11

$$



USA.gov is the U.S. government's official web portal to all federal, state and local government web resources and services.